Flag for U.S.A. Weather past 2 weeks in Ocala, Florida, U.S.A.

Now
68 °F

Clear.


Feels Like: 68 °F
Forecast: 64 / 83 °F
Wind: 5 mph from Northeast

Location: Ocala Municipal

Current Time: May 6, 2015 at 12:25:59 AM

Latest Report: May 5, 2015 at 11:35 PM


Visibility: 10 mi

Pressure: 30.16 "Hg

Humidity: 78%

Dew point: 61 °F

Location of OcalaLocation

Historic Weather in Ocala — Graph

°F

Ocala temperature yesterday

Maximum temperature yesterday: 82 °F (at 2:50 PM)
Minimum temperature yesterday: 63 °F (at 1:15 AM)
Average temperature yesterday: 70 °F

Past Weeks' High & Low Weather Summary

 TemperatureHumidityPressure
High88 °F (Apr 24, 3:50 PM)94% (Apr 20, 11:15 PM)30.27 "Hg (Apr 20, 11:15 PM)
Low48 °F (May 2, 5:55 AM)28% (May 3, 12:50 PM)29.64 "Hg (Apr 29, 3:50 PM)
Average69 °F73%29.94 "Hg
* Reported Apr 20 10:15 PM — May 5 10:55 PM, Ocala, Weather by CustomWeather, © 2015

Note: Actual official high and low records may vary slightly from our data, if they occured in-between our weather recording intervals... More about our weather records

Advertising

Ocala weather history for previous 24 hours

 ConditionsComfort  
Time TempWeatherWind HumidityBarometerVisibility
10:55 PM
Tue, May 5
70 °FClear.5 mph73%30.16 "Hg10 mi
10:35 PM70 °FClear.5 mph69%30.16 "Hg10 mi
10:15 PM70 °FClear.5 mph64%30.16 "Hg10 mi
9:55 PM72 °FClear.5 mph61%30.15 "Hg10 mi
9:35 PM72 °FClear.5 mph61%30.15 "Hg10 mi
9:15 PM72 °FClear.3 mph61%30.15 "Hg10 mi
8:55 PM73 °FSunny.5 mph57%30.14 "Hg10 mi
8:35 PM73 °FSunny.7 mph57%30.14 "Hg10 mi
8:15 PM73 °FSunny.6 mph57%30.13 "Hg10 mi
5:50 PM81 °FPassing clouds.12 mph45%30.12 "Hg10 mi
4:50 PM79 °FScattered clouds.12 mph51%30.13 "Hg10 mi
3:50 PM81 °FPartly sunny.12 mph45%30.14 "Hg10 mi
2:50 PM82 °FPartly sunny.12 mph48%30.16 "Hg10 mi
1:50 PM81 °FBroken clouds.12 mph51%30.17 "Hg10 mi
12:50 PM81 °FBroken clouds.12 mph54%30.19 "Hg10 mi
11:50 AM77 °FBroken clouds.7 mph65%30.21 "Hg10 mi
10:50 AM75 °FMostly cloudy.10 mph69%30.22 "Hg10 mi
9:50 AM72 °FMostly cloudy.6 mph73%30.22 "Hg10 mi
8:50 AM72 °FPartly sunny.9 mph69%30.21 "Hg10 mi
7:50 AM66 °FMostly cloudy.6 mph83%30.20 "Hg10 mi
6:50 AM64 °FOvercast.5 mph83%30.18 "Hg10 mi
6:35 AM66 °FOvercast.3 mph73%30.18 "Hg10 mi
6:15 AM66 °FPassing clouds.3 mph73%30.18 "Hg10 mi
5:55 AM66 °FPassing clouds.3 mph73%30.17 "Hg10 mi
5:35 AM66 °FOvercast.3 mph73%30.17 "Hg10 mi
5:15 AM66 °FMostly cloudy.3 mph73%30.17 "Hg10 mi
4:55 AM66 °FOvercast.5 mph73%30.17 "Hg10 mi
4:35 AM66 °FMostly cloudy.5 mph73%30.18 "Hg10 mi
4:15 AM66 °FOvercast.7 mph73%30.18 "Hg8 mi
3:55 AM66 °FOvercast.5 mph73%30.18 "Hg10 mi
3:35 AM64 °FOvercast.3 mph78%30.18 "Hg10 mi
3:15 AM64 °FOvercast.3 mph78%30.18 "Hg10 mi
2:55 AM64 °FPassing clouds.3 mph78%30.19 "Hg10 mi
2:35 AM64 °FPassing clouds.3 mph73%30.19 "Hg10 mi
2:15 AM63 °FPassing clouds.3 mph77%30.20 "Hg10 mi
1:55 AM63 °FClear.3 mph77%30.21 "Hg10 mi
1:35 AM63 °FClear.3 mph77%30.22 "Hg10 mi
1:15 AM63 °FClear.3 mph77%30.22 "Hg10 mi
12:55 AM64 °FClear.3 mph68%30.22 "Hg10 mi
12:35 AM64 °FClear.No wind68%30.22 "Hg10 mi
Weather by CustomWeather, © 2015

See weather overviewHow to use our weather pages